Tracking 24122 objects as of 7-Dec-2021
HD Live streaming from Space Station
objects crossing your sky now

SL-12 R/B(2)

Track SL-12 R/B(2) now!


NORAD ID: 23111
Int'l Code: 1994-030D
Perigee: 34,631.5 km
Apogee: 35,013.8 km
Inclination: 13.6 °
Period: 1,386.8 minutes
Semi major axis: 41193 km
RCS: 2.2242 m2 (large)
Launch date: May 20, 1994
Source: Commonwealth of Independent States (former USSR) (CIS)
Launch site: TYURATAM MISSILE AND SPACE COMPLEX (TTMTR)

Note: This is a ROCKET BODY
aabbcc
Your satellite tracking list
Your tracking list is empty




NASA's NSSDC Master Catalog

Two Line Element Set (TLE):
1 23111U 94030D   21340.41280950 -.00000113  00000-0  00000-0 0  9999
2 23111  13.5635 356.6792 0046407 142.9061 207.0751  1.03838356104481
Source of the keplerian elements: AFSPC